Showing default

KINEIS-5A, 62084

Orbit data source: Space-Track

KINEIS-5A, 62084 is a French payload satellite in SSO that was launched on Mon, 25 Nov 2024 UTC via an ELECTRON launch vehicle from the Rocket Lab Launch Complex (RLLC). Payload-class satellites include a variety of spacecraft equipped with specific instruments for various scientific and technological missions. These include communications satellites like Starlink; space stations such as the ISS; scientific satellites like the Hubble; Earth observation satellites from companies like Planet Labs, Umbra, and HawkEye 360; GPS; miniature CubeSats for education and research; and military/defense satellites.

Loading next visibility...
Identifier
62084, 2024-219D
Orbit
SSO
Last TLE update
13 hours ago
Origin
Manufacturer
KINEIS
Mission
Operational Commercial Communications
Bus & Motor
CUBESAT 16U, Unknown motor
Mass
28 kg wet, 28 kg dry
Launch date (UTC)
2024-11-25 (7 months ago)
Launch vehicle
ELECTRON
Launch site
Rocket Lab Launch Complex (RLLC)
Object type
Payload
Rocket body
Debris
Shape & HBR
Box + 2 Pan + 1 Ant, 1.6 m
Radar Cross Section
0.229 m², Medium (>0.1 m² and < 1m²)

Expand to show TLE details & history

TLE from 13 hours ago
0 KINEIS-5A
1 62084U 24219D   25186.40659703  .00000568  00000-0  96337-4 0  9995
2 62084  97.9723 347.5768 0001873  13.9249 346.2010 14.72884225 32741
Epoch: 2025-07-05T09:45Z
TLE epoch observation values (Epoch: 2025-07-05T09:45:29.983Z)
Latitude
-0.00003°
Longitude
-82.44322°
Altitude
653.606 km
Speed
7.531 km/s
True Right ascension
23h 10m 18s
True Declination
0° 00' 00"
Sunlit
Object was in partial shadow at epoch
Visualization orbit readout
Latitude
-80.58663°
Longitude
40.91263°
Altitude
680.425 km
Speed
7.515 km/s
Apparent Right ascension
23h 02m 57s
Apparent Declination
-69° 24' 05"
Sunlit
Object is in daylight
Visualization observer readout
Local Sidereal Time
10:18:24
Azimuth
187.795° SSW
Elevation
-59.929°
Doppler factor
1
Orbital elements
Apogee altitude
650.245 km
Perigee altitude
647.613 km
Semi-major axis
7,027.066 km
Eccentricity
0.00019
Inclination
97.9723°
RAAN
347.5768°
Arg. of periapsis
13.9249°
True anomaly
Unknown
Mean anomaly
346.201°
Eccentric anomaly
Unknown
Mean motion
3.68453 °/min
Orbital period
97.71 mins
BSTAR
0.000096337
Loading maneuver chart data...
Loading SW <> Apogee altitude chart data...
Loading historical data...
Loading historical data...
Loading historical data...
Loading historical data...
Loading historical data...
Loading historical data...
Loading historical data...

KINEIS-5A Visibility forecast

Observer location: undefined°, undefined°

Span
Click to sort rows by Start time (UTC) header in descending order
Start Az.
Max El. time (UTC)
Max El. Az.
Max El.
End time (UTC)
End Az.
8 mins2025-07-05 23:22:13.895Z21.966° NNE2025-07-05 23:26:13.895Z103.163° ESE40.485°2025-07-05 23:30:13.895Z179.48° S
7 mins2025-07-06 10:21:13.895Z139.292° SSE2025-07-06 10:24:13.895Z70.272° E36.336°2025-07-06 10:28:13.895Z0.285° NNE
|